[Iaude] MPEC B64: 2016 YN13 = 2000 EC14 [a=2.62, e=0.53, i=11.4, H=20.5]

mpec at si.edu mpec at si.edu
Wed Jan 25 10:43:26 EST 2017


M.P.E.C. 2017-B64                                Issued 2017 Jan. 25, 15:38 UT
 
     The Minor Planet Electronic Circulars contain information on unusual
         minor planets and routine data on comets.  They are published
    on behalf of Division F of the International Astronomical Union by the
          Minor Planet Center, Smithsonian Astrophysical Observatory,
                          Cambridge, MA 02138, U.S.A.

             Prepared using the Tamkin Foundation Computer Network

                              MPC at CFA.HARVARD.EDU
            URL http://www.minorplanetcenter.net/    ISSN 1523-6714


                             2016 YN13 = 2000 EC14
 
                           Revision to MPEC 2017-B63
 
Orbital elements:
2016 YN13 = 2000 EC14                                    Earth MOID = 0.2558 AU
Epoch 2017 Feb. 16.0 TT = JDT 2457800.5                 MPC
M  11.32570              (2000.0)            P               Q
n   0.23274356     Peri.  334.91253     -0.68965600     -0.72049163
a   2.6174854      Node   158.44797     +0.69324193     -0.68586852
e   0.5299449      Incl.   11.39386     +0.20926115     -0.10235326
P   4.23           H   20.5           G   0.15           U   2
Residuals in seconds of arc
000303 704  0.1+  0.0     000305 704  0.2+  0.2+    161228 C51  1.1+  0.7+
000303 704  0.2+  0.2-    000305 474  0.5-  0.3-    161229 C51  0.1+  1.4+
000303 704  0.0   0.1-    000305 474  0.4+  0.4+    161229 C51  1.1+  1.1-
000303 704  0.1-  0.1+    000305 474  0.4+  1.0-    161229 C51  1.0-  0.8+
000303 704  0.1-  0.1+    000305 046  0.5-  0.9-    161229 C51  0.6+  0.4-
000304 704  1.1+  0.7-    000305 046  1.6-  0.8-    161229 C51  0.2-  1.1+
000304 704  0.3-  0.0     000305 046  1.1+  0.1-    161229 C51  0.4+  0.3-
000304 704  0.6-  1.7+    000305 046 (2.1+  0.4+)   161229 C51  0.4+  0.3-
000304 858  1.6+  0.1-    000307 557  1.4+  1.1-    161229 C51  1.0-  0.5-
000304 858  0.2+  0.3-    000307 557  0.3-  0.0     161229 C51 (2.8-  4.2+)
000304 858  0.2-  0.0     000309 704  0.2-  0.0     161230 C51 (1.9-  1.5+)
000304 474  0.0   0.4+    000309 704  0.8-  1.6+    161230 C51  0.8+  0.1-
000304 474  0.1+  0.1-    000309 704  0.1-  0.7+    170104 T12  0.2-  0.0
000304 474  0.2-  0.1+    000309 704  1.1-  0.3-    170104 T12  0.1-  0.0
000304 474  0.2+  0.2+    161227 C51  1.2+  0.3-    170104 T12  0.2+  0.0
000305 704  0.3+  0.4+    161227 C51  0.1+  0.6-    170124 T12  0.0   0.0
000305 704  0.1-  0.3-    161228 C51  0.4+  0.8+    170124 T12  0.0   0.0
000305 704  0.1-  0.8+    161228 C51 (1.9+  0.6-)
000305 704  0.6-  0.7+    161228 C51  0.3+  0.1-

Ephemeris:
2016 YN13                a,e,i = 2.62, 0.53, 11                  q = 1.2304
Date    TT    R. A. (2000) Decl.     Delta      r     Elong.  Phase     V
2016 12 26    12 01 07.2 -09 51 46   0.7369  1.2309    90.2    53.0    22.2
...
2017 01 10    12 53 21.5 -11 13 33   0.7004  1.2374    93.1    52.5    22.1
...
2017 01 18    13 19 01.7 -11 19 32   0.6852  1.2501    95.3    51.6    22.1
...
2017 01 24    13 36 54.3 -11 06 24   0.6750  1.2637    97.5    50.6    22.0
2017 01 25    13 39 45.1 -11 02 45   0.6733  1.2663    97.8    50.4    22.0
2017 01 26    13 42 33.6 -10 58 41   0.6717  1.2690    98.2    50.2    22.0
...
2017 02 01    13 58 31.1 -10 25 42   0.6627  1.2869   100.9    48.8    22.0
...
2017 02 09    14 17 13.5 -09 19 40   0.6518  1.3153   105.0    46.4    21.9
...
2017 02 24    14 43 19.0 -06 15 27   0.6354  1.3810   114.6    40.7    21.8

Gareth V. Williams           (C) Copyright 2017 MPC           M.P.E.C. 2017-B64




More information about the Iaude mailing list